Location: Civry
(47.2902°N, 4.6156°E)
Time: 17:19:09
(UTC+00:00)

SL-4 R/B - Pass Details

Date: 09 April 2020
Orbit: 428 x 666 km, 51.6° (Epoch: 04 June)

Event Time Altitude Azimuth Distance (km) Brightness Sun altitude
Rises 20:41:31 0° 280° (W) 2,393 6.3 -21.7°
Reaches altitude 10° 20:43:42 10° 289° (WNW) 1,530 5.2 -22.0°
Maximum altitude 20:46:55 38° 360° (N) 679 2.7 -22.4°
Enters shadow 20:47:17 37° 16° (NNE) 697 2.7 -22.4°
